Regional Weather Roundup
Issued by NWS

Home | Current Version | Previous Version | Graphics & Text | Print | Product List | Glossary On
Versions: 1 2 3 4 5 6 7 8 9 10 11 12 13 14 15 16 17 18 19 20 21 22 23 24 25 26 27 28 29 30 31 32 33 34 35 36 37 38 39 40 41 42 43 44 45 46 47 48 49 50
203
ASUS43 KFSD 250602
RWRSD

WEATHER ROUNDUP FOR SOUTH DAKOTA
NATIONAL WEATHER SERVICE SIOUX FALLS SD
100 AM CDT FRI MAY 25 2018

NOTE: "FAIR" INDICATES FEW OR NO CLOUDS BELOW 12,000 FEET WITH NO
SIGNIFICANT WEATHER AND/OR OBSTRUCTIONS TO VISIBILITY.


SDZ001>005-009-010-012>017-250700-
NORTHWEST AND NORTH CENTRAL SOUTH DAKOTA

CITY           SKY/WX    TMP DP  RH WIND       PRES   REMARKS
BUFFALO          N/A     63  49  60 W9        29.84R
FAITH            N/A     66  59  78 SW8       29.89R
MOBRIDGE       CLEAR     65  58  78 E3        29.81S
$$

SDZ012>016-024>037-041>051-057-063-072>074-250700-
SOUTHWEST AND SOUTH CENTRAL SOUTH DAKOTA

CITY           SKY/WX    TMP DP  RH WIND       PRES   REMARKS
RAPID CTY ARPT PTCLDY    60  55  83 W6        29.94R
PIERRE         CLEAR     69  58  67 S3        29.84S
CUSTER         CLEAR     52  43  71 NW3       30.07S
ELLSWORTH AFB  CLEAR     67  57  70 SW3       29.94R
PHILIP         CLEAR     66  58  75 CALM      29.88S
PINE RIDGE     CLEAR     57  55  93 CALM      29.96R
SPEARFISH      FAIR      61  50  67 CALM      29.98S
WINNER         FAIR      68  58  70 SW6       29.87S
$$

SDZ004>011-016>023-039-040-250700-
NORTHEAST SOUTH DAKOTA

CITY           SKY/WX    TMP DP  RH WIND       PRES   REMARKS
ABERDEEN       PTCLDY    63  56  78 W8        29.80S
WATERTOWN      CLEAR     65  61  87 S7        29.84S
BROOKINGS      CLEAR     67  59  75 S9        29.87S
SISSETON         N/A     72  64  76 SW12      29.78S
$$

SDZ017-020-022-023-036>040-048>070-250700-
SOUTHEAST SOUTH DAKOTA

CITY           SKY/WX    TMP DP  RH WIND       PRES   REMARKS
SIOUX FALLS    PTCLDY    67  62  84 SE3       29.86F
HURON          CLOUDY    67  63  87 SE3       29.83R
CHAMBERLAIN    CLOUDY    68  63  83 W5        29.86R
MITCHELL       MOCLDY    64  61  90 NE3       29.84S
YANKTON        MOCLDY    71  59  65 SE7       29.83F
$$

ABBREVIATIONS USED IN REMARKS
   TC - TEMPERATURE IN CELSIUS
  WCI - WIND CHILL INDEX
   HX - HEAT INDEX
  VSB - VISIBILITY





USA.gov is the U.S. government's official web portal to all federal, state and local government web resources and services.